sat.trackr.live / text

‹ back to catalog

STARLINK-6047

NORAD 56460 · 2023-064N

PAYLOAD ACTIVE UNKNOWN

§ Identity

Operator
Country
US
Launch date
2023-05-10
Launch site
AFWTR
Launch vehicle
Mass (kg)
RCS (m²)

Purposes: comms

External: N2YO · Heavens-Above · Gunter

§ Orbital elements

Epoch: 2026-05-25T04:06:28.566144Z

Period
96.11 min
Inclination
69.9991°
Eccentricity
0.0002791
Mean motion
14.98337764 rev/d
Perigee alt
570.1 km
Apogee alt
574.0 km
Semi-major
6,950.2 km
B*
2.3020e-5
RAAN
311.5600°
Arg perigee
267.2926°
Mean anomaly
92.7913°
Rev number
16,670

§ Raw data

STARLINK-60471 56460U 23064N   26145.17116396  .00000182  00000+0  23020-4 0  99992 56460  69.9991 311.5600 0002791 267.2926  92.7913 14.98337764166708

JSON: /api/v1/satellites/56460 · /tle

For live sub-satellite position, see the globe view (requires WebGL).

§ Visibility from observer

Set your observer location to see the next 7 days of passes ≥ 10°. The values pass through the URL so the page stays shareable.

No JS? Fill the form by hand. The geolocation button needs JavaScript.